This demonstration page uses our WeatherBlox Daily Observations layout. Learn more.

Left ArrowRight Arrow

39.01783, -85.05884

Hourly Observations for May 3, 2019

Temp ( °F °C ) Dew Point ( °F °C ) Humidity (%) Winds ( mph kmh ) Pressure ( in mb ) Visibility ( mi km ) Precip ( " mm )
12:52 am 00:52 Cloudy 65 18.3 62 16.7 90 90 S 7 11 30.01 1016 9 14 0.00 0.00
1:52 am 01:52 Cloudy 63 17.2 61 16.1 93 93 S 6 9 30.00 1016 9 14 0.00 0.00
2:52 am 02:52 Cloudy 64 17.8 61 16.1 90 90 Calm 29.98 1015 10 16 0.00 0.00
3:52 am 03:52 Cloudy 62 16.7 60 15.6 93 93 SSE 6 9 29.97 1015 9 14 0.00 0.00
4:31 am 04:31 Cloudy 63 17.2 61 16.1 93 93 S 6 9 30.00 1016 9 14 0.00 0.00
4:52 am 04:52 Cloudy with Heavy Rain 63 17.2 61 16.1 93 93 S 8 13 29.98 1015 4 6 0.05 1.27
5:07 am 05:07 Cloudy with Mist and Fog 63 17.2 61 16.1 93 93 SE 5 7 29.97 1015 4 6 0.04 1.02
5:11 am 05:11 Cloudy with Rain 63 17.2 61 16.1 93 93 S 7 11 29.98 1015 4 6 0.05 1.27
5:52 am 05:52 Cloudy with Light Rain 63 17.2 61 16.1 93 93 SSW 3 6 29.97 1015 7 11 0.07 1.78
6:52 am 06:52 Cloudy with Light Rain 63 17.2 61 16.1 93 93 WSW 3 6 29.98 1015 6 10 0.06 1.52
7:52 am 07:52 Cloudy with Light Rain 63 17.2 61 16.1 93 93 SSW 3 6 29.98 1015 6 10 0.06 1.52
7:55 am 07:55 Cloudy with Light Rain 63 17.2 61 16.1 93 93 SSW 5 7 29.99 1015 7 11 0.00 0.03
8:52 am 08:52 Cloudy with Light Rain 63 17.2 61 16.1 93 93 Calm 29.98 1015 5 8 0.04 1.02
9:05 am 09:05 Cloudy with Light Rain 63 17.2 61 16.1 93 93 NNW 3 6 29.99 1015 5 8 0.02 0.51
9:23 am 09:23 Cloudy with Light Rain 63 17.2 61 16.1 93 93 SSE 3 6 30.00 1016 3 5 0.05 1.27
9:52 am 09:52 Cloudy with Light Rain 63 17.2 61 16.1 93 93 SE 3 6 29.97 1015 3 5 0.12 3.05
11:52 am 11:52 Cloudy with Mist and Fog 65 18.3 62 16.7 90 90 ESE 8 13 29.97 1015 3 5 0.02 0.51
12:01 pm 12:01 Cloudy with Mist and Fog 65 18.3 62 16.7 90 90 ESE 7 11 29.97 1015 3 5 0.00 0.00
12:39 pm 12:39 Cloudy with Mist and Fog 66 18.9 61 16.1 84 84 ESE 3 6 29.96 1015 3 5 0.00 0.00
12:42 pm 12:42 Cloudy 66 18.9 61 16.1 84 84 ESE 3 6 29.96 1015 10 16 0.00 0.00
12:52 pm 12:52 Cloudy 66 18.9 61 16.1 84 84 SE 5 7 29.96 1015 10 16 0.00 0.00
1:52 pm 13:52 Cloudy 69 20.6 61 16.1 76 76 Calm 29.94 1014 10 16 0.00 0.00
2:27 pm 14:27 Mostly Cloudy 70 21.1 59 15 68 68 Calm 29.92 1013 10 16 0.00 0.00
2:52 pm 14:52 Mostly Cloudy 72 22.2 61 16.1 68 68 Calm 29.92 1013 10 16 0.00 0.00
3:35 pm 15:35 Mostly Cloudy 69 20.6 61 16.1 76 76 Calm 29.92 1013 10 16 0.00 0.00
3:52 pm 15:52 Cloudy 70 21.1 60 15.6 71 71 Calm 29.92 1013 10 16 0.00 0.00
4:22 pm 16:22 Cloudy 70 21.1 61 16.1 73 73 Calm 29.90 1013 10 16 0.00 0.00
4:52 pm 16:52 Mostly Cloudy 71 21.7 60 15.6 68 68 N 5 7 29.90 1013 10 16 0.00 0.00
5:40 pm 17:40 Mostly Cloudy 72 22.2 59 15 64 64 NW 7 11 29.89 1012 10 16 0.00 0.00
6:52 pm 18:52 Cloudy 72 22.2 60 15.6 66 66 NW 6 9 29.90 1013 10 16 0.00 0.00
7:52 pm 19:52 Cloudy 69 20.6 61 16.1 76 76 NW 12 19 29.91 1013 10 16 0.00 0.00
8:52 pm 20:52 Mostly Cloudy 66 18.9 59 15 78 78 NNW 7 11 29.92 1013 10 16 0.00 0.00
9:52 pm 21:52 Mostly Cloudy 64 17.8 59 15 84 84 N 10 17 29.93 1014 10 16 0.00 0.00
10:52 pm 22:52 Cloudy 64 17.8 59 15 84 84 N 9 15 29.95 1014 10 16 0.00 0.00
11:52 pm 23:52 Cloudy 63 17.2 58 14.4 84 84 N 8 13 29.94 1014 10 16 0.00 0.00

Powered by AerisWeather